Weather History for White Mountain, AK

Change the Weather History Date:

Monday, January 7, 2013

  Actual Average (PAKK) Record (PAKK)
Temperature  
Mean Temperature 17 °F -  
Max Temperature 19 °F 6 °F 32 °F (2014)
Min Temperature 15 °F 0 °F -32 °F (2003)
Degree Days  
Heating Degree Days 48    
Moisture  
Dew Point 16 °F    
Average Humidity 94    
Maximum Humidity 96    
Minimum Humidity 92    
Precipitation  
Precipitation 0.00 in - - ()
Sea Level Pressure  
Sea Level Pressure 29.44 in    
Wind  
Wind Speed 8 mph (NNW)    
Max Wind Speed 10 mph    
Max Gust Speed -    
Visibility 9 miles    
Events      
Averages and records for this station are not official NWS values.
T = Trace of Precipitation, MM = Missing Value Source: NWS Daily Summary

Daily Weather History Graph

Daily Weather History Graph

Search for Another Location

Airport:

Trip Planner

Search our weather history database for the weather conditions in past years. The results will help you decide how hot, cold, wet, or windy it might be!

Date:

Astronomy

Jan. 07, 2013 Rise Set
Actual Time 11:44 AM AKST 4:16 PM AKST
Civil Twilight 10:28 AM AKST 5:32 PM AKST
Nautical Twilight 9:19 AM AKST 6:41 PM AKST
Astronomical Twilight 8:19 AM AKST 7:41 PM AKST
Moon 6:51 AM AKST (1/7) 1:03 PM AKST (1/7)
Length of Visible Light 7h 04m
Length of Day
4h 32m
Waning Crescent, 21% of the Moon is Illuminated
Jan 7
Waning Crescent
Jan 11
New
Jan 18
First Quarter
Jan 26
Full
Feb 3
Last Quarter

Hourly Weather History & Observations

Time (AKST) Temp. Windchill Dew Point Humidity Pressure Visibility Wind Dir Wind Speed Gust Speed Precip Events Conditions
12:58 AM 18.0 °F 7.7 °F 17.1 °F 96% 29.31 in 9.0 mi North 8.1 mph - N/A   Clear
1:58 AM 18.0 °F 6.9 °F 17.1 °F 96% 29.31 in 9.0 mi North 9.2 mph - N/A   Partly Cloudy
3:58 AM 18.0 °F 6.9 °F 17.1 °F 96% 29.31 in 9.0 mi North 9.2 mph - N/A   Overcast
4:58 AM 17.1 °F 5.0 °F 16.0 °F 96% 29.31 in 9.0 mi NNW 10.4 mph - N/A   Overcast
5:58 AM 19.0 °F 7.5 °F 18.0 °F 96% 29.31 in 9.0 mi North 10.4 mph - N/A   Overcast
6:58 AM 18.0 °F 6.1 °F 17.1 °F 96% 29.32 in 9.0 mi NNW 10.4 mph - N/A   Overcast
7:58 AM 19.0 °F 7.5 °F 18.0 °F 96% 29.34 in 9.0 mi NNW 10.4 mph - N/A   Overcast
8:58 AM 18.0 °F 7.7 °F 17.1 °F 96% 29.35 in 9.0 mi North 8.1 mph - N/A   Overcast
10:58 AM 18.0 °F 6.1 °F 17.1 °F 96% 29.38 in 9.0 mi North 10.4 mph - N/A   Scattered Clouds
11:58 AM 17.1 °F 5.8 °F 15.1 °F 92% 29.40 in 8.0 mi North 9.2 mph - N/A   Clear
12:58 PM 17.1 °F 5.0 °F 15.1 °F 92% 29.42 in 8.0 mi North 10.4 mph - N/A   Overcast
1:58 PM 17.1 °F 7.6 °F 15.1 °F 92% 29.44 in 8.0 mi NNW 6.9 mph - N/A   Overcast
2:58 PM 17.1 °F 7.6 °F 16.0 °F 96% 29.45 in 8.0 mi North 6.9 mph - N/A   Overcast
3:58 PM 18.0 °F - 16.0 °F 92% 29.47 in 8.0 mi Calm Calm - N/A   Overcast
4:58 PM 17.1 °F 11.7 °F 15.1 °F 92% 29.48 in 8.0 mi NNE 3.5 mph - N/A   Overcast
5:58 PM 17.1 °F 8.7 °F 15.1 °F 92% 29.51 in 9.0 mi NNW 5.8 mph - N/A   Overcast
6:58 PM 15.1 °F 3.3 °F 14.0 °F 95% 29.53 in 9.0 mi NNW 9.2 mph - 0.00 in   Mostly Cloudy
7:58 PM 16.0 °F 6.3 °F 15.1 °F 96% 29.55 in 9.0 mi North 6.9 mph - N/A   Overcast
8:58 PM 17.1 °F - 15.1 °F 92% 29.57 in 9.0 mi Calm Calm - N/A   Overcast
9:58 PM 16.0 °F 8.8 °F 14.0 °F 92% 29.60 in 9.0 mi WNW 4.6 mph - N/A   Overcast
10:58 PM 16.0 °F 8.8 °F 14.0 °F 92% 29.62 in 9.0 mi WNW 4.6 mph - N/A   Overcast
11:58 PM 16.0 °F 10.4 °F 14.0 °F 92% 29.64 in 9.0 mi NW 3.5 mph - N/A   Overcast